Flag for Norway Weather past 2 weeks in Stange, Norway

Now
58 °F

Cool.


Feels Like: 59 °F
Forecast: 43 / 66 °F
Wind: 3 mph from North

Location: Haugedalshogda

Current Time: Aug 2, 2015 at 6:43:25 PM

Latest Report: Aug 2, 2015 at 6:00 PM


Visibility: N/A

Pressure: 29.97 "Hg

Humidity: 65%

Dew point: 46 °F

Location of StangeLocation

Historic Weather in Stange — Graph

°F

Stange temperature yesterday

Maximum temperature yesterday: 67 °F (at 3:00 PM)
Minimum temperature yesterday: 36 °F (at 5:00 AM)
Average temperature yesterday: 53 °F

Past Weeks' High & Low Weather Summary

 TemperatureHumidityPressure
High71 °F (Jul 22, 2:00 PM)96% (Jul 22, 3:00 AM)30.01 "Hg (Jul 22, 3:00 AM)
Low32 °F (Jul 25, 4:00 AM)38% (Jul 24, 4:00 PM)29.38 "Hg (Jul 26, 7:00 PM)
Average55 °F73%29.67 "Hg
* Reported Jul 18 5:00 PM — Aug 2 5:00 PM, Stange, Weather by CustomWeather, © 2015

Note: Actual official high and low records may vary slightly from our data, if they occured in-between our weather recording intervals... More about our weather records

Advertising

Stange weather history for previous 24 hours

 ConditionsComfort  
Time TempWeatherWind HumidityBarometerVisibility
5:00 PM
Sun, Aug 2
60 °FCool.2 mph65%29.95 "HgN/A
4:00 PM58 °FCool.2 mph62%29.95 "HgN/A
3:00 PM54 °FCool.2 mph80%29.96 "HgN/A
2:00 PM51 °FCool.5 mph83%29.95 "HgN/A
1:00 PM63 °FMild.5 mph51%29.89 "HgN/A
12:00 PM59 °FCool.2 mph64%29.90 "HgN/A
11:00 AM54 °FCool.3 mph81%29.91 "HgN/A
10:00 AM52 °FCool.3 mph86%29.91 "HgN/A
9:00 AM51 °FCool.3 mph88%29.90 "HgN/A
8:00 AM51 °FCool.3 mph90%29.91 "HgN/A
7:00 AM50 °FCool.1 mph93%29.93 "HgN/A
6:00 AM50 °FCool.2 mph93%29.94 "HgN/A
5:00 AM50 °FCool.2 mph93%29.94 "HgN/A
4:00 AM49 °FCool.2 mph94%29.96 "HgN/A
3:00 AM48 °FCool.1 mph91%29.95 "HgN/A
2:00 AM47 °FCool.2 mph91%29.96 "HgN/A
1:00 AM47 °FCool.2 mph90%29.96 "HgN/A
12:00 AM47 °FCool.1 mph88%29.96 "HgN/A
10:00 PM
Sat, Aug 1
51 °FCool.1 mph79%29.94 "HgN/A
9:00 PM58 °FCool.2 mph61%29.92 "HgN/A
8:00 PM61 °FRefreshingly cool.5 mph47%29.91 "HgN/A
6:00 PM64 °FMild.6 mph41%29.90 "HgN/A
Weather by CustomWeather, © 2015

See weather overviewHow to use our weather pages